Tracking 28790 objects as of 19-Apr-2024
HD Live streaming from Space Station
objects crossing your sky now

CZ-6A DEB

Track CZ-6A DEB now!
10-day predictions


NORAD ID: 54298
Int'l Code: 2022-151AR
Perigee: 833.9 km
Apogee: 925.8 km
Inclination: 98.8 °
Period: 102.4 minutes
Semi major axis: 7250 km
RCS: Unknown
Launch date: November 11, 2022
Source: People's Republic of China (PRC)
Launch site: Taiyaun Space Center, China (TSC)

Note: This is SATELLITE DEBRIS
Your satellite tracking list
Your tracking list is empty




NASA's NSSDC Master Catalog

Two Line Element Set (TLE):
1 54298U 22151AR  24109.94525165  .00000879  00000-0  55079-3 0  9995
2 54298  98.7790 108.2084 0063347  59.1638 301.5743 14.06104696 73086
Source of the keplerian elements: AFSPC